Weather History for Cairo, Egypt

Change the Weather History Date:

Wednesday, January 8, 2014

  Actual Average Record
Temperature  
Mean Temperature 59 °F -  
Max Temperature 67 °F 65 °F 77 °F (2003)
Min Temperature 51 °F 48 °F 44 °F (2015)
Degree Days  
Heating Degree Days 6    
Growing Degree Days 9 (Base 50)    
Moisture  
Dew Point 38 °F    
Average Humidity 45    
Maximum Humidity 58    
Minimum Humidity 22    
Precipitation  
Precipitation 0.00 in 0.01 in - ()
Sea Level Pressure  
Sea Level Pressure 29.96 in    
Wind  
Wind Speed 3 mph ()    
Max Wind Speed 10 mph    
Max Gust Speed -    
Visibility 4.0 miles    
Events      
Averages and records for this station are not official NWS values.
T = Trace of Precipitation, MM = Missing Value Source: Averaged Metar Reports

Daily Weather History Graph

Daily Weather History Graph

Search for Another Location

Airport:

Trip Planner

Search our weather history database for the weather conditions in past years. The results will help you decide how hot, cold, wet, or windy it might be!

Date:

Astronomy

Jan. 08, 2014 Rise Set
Actual Time 6:51 AM EET 5:10 PM EET
Civil Twilight 6:25 AM EET 5:36 PM EET
Nautical Twilight 5:55 AM EET 6:06 PM EET
Astronomical Twilight 5:26 AM EET 6:35 PM EET
Moon 11:37 AM EET (1/8) No Moon Set
Length of Visible Light 11h 11m
Length of Day
10h 19m
First Quarter, 53% of the Moon is Illuminated
Jan 8
First Quarter
Jan 16
Full
Jan 24
Last Quarter
Jan 30
New
Feb 6
First Quarter

Hourly Weather History & Observations

Time (EET) Temp. Dew Point Humidity Pressure Visibility Wind Dir Wind Speed Gust Speed Precip Events Conditions
12:00 AM 57.2 °F 35.6 °F 44% 29.98 in - ESE 4.6 mph - N/A   Clear
12:30 AM 53.6 °F 35.6 °F 51% 29.98 in - Calm Calm - N/A   Clear
1:00 AM 51.8 °F 35.6 °F 54% 29.98 in - Calm Calm - N/A   Clear
1:30 AM 51.8 °F 35.6 °F 54% 29.98 in - Calm Calm - N/A   Clear
2:00 AM 52 °F 36 °F 43% 30.00 in 6 mi Calm Calm - -  
2:00 AM 51.8 °F 35.6 °F 54% 29.98 in - Calm Calm - N/A   Clear
2:30 AM 53.6 °F 37.4 °F 54% 29.95 in - Calm Calm - N/A   Clear
3:00 AM 51.8 °F 35.6 °F 54% 29.95 in - Calm Calm - N/A   Clear
3:30 AM 51.8 °F 37.4 °F 58% 29.95 in - Calm Calm - N/A   Clear
4:00 AM 53.6 °F 37.4 °F 54% 29.95 in - Calm Calm - N/A   Clear
4:30 AM 51.8 °F 37.4 °F 58% 29.95 in - Calm Calm - N/A   Clear
5:00 AM 51.8 °F 37.4 °F 58% 29.95 in - Calm Calm - N/A   Clear
5:30 AM 53.6 °F 37.4 °F 54% 29.95 in - Calm Calm - N/A   Clear
6:00 AM 51.8 °F 37.4 °F 58% 29.98 in - Calm Calm - N/A   Clear
6:30 AM 51.8 °F 37.4 °F 58% 29.98 in - Calm Calm - N/A   Clear
7:00 AM 53.6 °F 37.4 °F 54% 29.98 in - SSE 5.8 mph - N/A   Clear
7:30 AM 55.4 °F 35.6 °F 47% 29.98 in - SSE 5.8 mph - N/A   Clear
8:00 AM 55.4 °F 35.6 °F 47% 29.98 in - SSE 4.6 mph - N/A   Clear
8:30 AM 57.2 °F 37.4 °F 48% 29.98 in - Calm Calm - N/A   Clear
9:00 AM 60.8 °F 37.4 °F 42% 29.98 in - Calm Calm - N/A   Clear
9:30 AM 62.6 °F 35.6 °F 37% 29.98 in - Calm Calm - N/A   Clear
10:00 AM 62.6 °F 37.4 °F 39% 29.98 in - West 3.5 mph - N/A   Clear
10:30 AM 64.4 °F 37.4 °F 37% 29.98 in 3.7 mi WSW 4.6 mph - N/A   Scattered Clouds
11:00 AM 64.4 °F 37.4 °F 37% 29.98 in 2.5 mi SSW 8.1 mph - N/A   Haze
11:30 AM 64.4 °F 37.4 °F 37% 29.95 in 2.5 mi SSW 8.1 mph - N/A   Haze
12:00 PM 66.2 °F 39.2 °F 37% 29.95 in 2.5 mi SW 9.2 mph - N/A   Haze
12:30 PM 64.4 °F 39.2 °F 40% 29.95 in 2.5 mi SW 10.4 mph - N/A   Haze
1:00 PM 66.2 °F 39.2 °F 37% 29.92 in 3.7 mi SSW 10.4 mph - N/A   Scattered Clouds
1:30 PM 66.2 °F 39.2 °F 37% 29.92 in 3.7 mi SW 9.2 mph - N/A   Scattered Clouds
2:00 PM 67 °F 38 °F 23% 29.93 in 4 mi SW 10.4 mph - -   Haze
2:00 PM 66.2 °F 37.4 °F 35% 29.92 in 3.7 mi SW 10.4 mph - N/A   Scattered Clouds
2:30 PM 68.0 °F 37.4 °F 33% 29.92 in 3.7 mi SW 9.2 mph - N/A   Scattered Clouds
3:00 PM 68.0 °F 37.4 °F 33% 29.92 in 3.7 mi SW 9.2 mph - N/A   Scattered Clouds
3:30 PM 68.0 °F 37.4 °F 33% 29.92 in 3.7 mi SW 8.1 mph - N/A   Scattered Clouds
4:00 PM 68.0 °F 37.4 °F 33% 29.92 in - WSW 8.1 mph - N/A   Clear
4:30 PM 64.4 °F 37.4 °F 37% 29.92 in - SSW 3.5 mph - N/A   Clear
5:00 PM 66 °F 36 °F 22% 29.94 in 6 mi SW 5.8 mph - -  
5:00 PM 64.4 °F 37.4 °F 37% 29.92 in - SSW 3.5 mph - N/A   Clear
6:00 PM 62.6 °F 37.4 °F 39% 29.95 in - SSW 5.8 mph - N/A   Clear
6:30 PM 60.8 °F 37.4 °F 42% 29.95 in - SSE 4.6 mph - N/A   Clear
7:00 PM 60.8 °F 37.4 °F 42% 29.95 in - SSE 4.6 mph - N/A   Clear
7:30 PM 59.0 °F 39.2 °F 48% 29.98 in - SSE 6.9 mph - N/A   Clear
8:00 PM 59 °F 38 °F 34% 29.98 in 6 mi SSE 5.8 mph - -  
8:00 PM 59.0 °F 39.2 °F 48% 29.98 in - SSE 5.8 mph - N/A   Clear
8:30 PM 59.0 °F 39.2 °F 48% 29.98 in - South 5.8 mph - N/A   Clear
9:00 PM 59.0 °F 39.2 °F 48% 29.98 in - SSW 5.8 mph - N/A   Clear
9:30 PM 57.2 °F 39.2 °F 51% 29.98 in - South 5.8 mph - N/A   Clear
10:00 PM 57.2 °F 39.2 °F 51% 29.98 in - South 4.6 mph - N/A   Clear
10:30 PM 55.4 °F 39.2 °F 54% 29.98 in - South 3.5 mph - N/A   Clear
11:00 PM 55 °F 40 °F 46% 29.99 in 6 mi South 5.8 mph - -  
11:00 PM 55.4 °F 41.0 °F 58% 29.98 in - South 5.8 mph - N/A   Clear
11:30 PM 55.4 °F 41.0 °F 58% 29.98 in - South 5.8 mph - N/A   Clear